Temp
70 69 72 72 73 72 71 70 70 72 70 71 72 68 67 66 65 65 64 64 63 61
71 71 73 72 73 72 70 71 71 70 70 70 69 68 66 65 65 65 63 63 63 62
71 72 74 74 73 72 71 72 70 70 69 69 68 67 66 65 65 64 63 63 63 63
71 72 74 72 72 72 72 72 71 70 69 69 70 67 65 65 65 64 63 64 63 63
71 72 70 69 68 70 70 72 71 70 69 72 71 69 66 66 66 64 63 63 63 63
74 73 70 67 67 69 69 69 70 69 69 71 71 67 67 67 66 65 64 64 63 62
72 71 68 67 67 68 70 69 68 68 71 71 70 70 68 68 65 64 62 62 61 61
71 69 70 68 67 68 68 69 70 70 70 70 70 72 70 68 64 61 61 61 60 60
72 70 68 67 67 67 67 68 68 66 68 66 66 52 57 64 62 62 60 59 59 60
71 70 67 68 67 66 65 69 69 66 64 61 57 48 51 57 63 61 60 59 59 60
72 69 67 68 67 67 64 66 65 64 62 59 56 48 49 52 63 61 61 60 60 60
72 68 66 67 68 65 63 62 62 63 61 58 54 48 49 55 61 60 61 60 60 60
72 69 66 64 64 63 63 63 63 63 62 56 55 48 48 56 61 59 59 58 57 50
73 71 68 66 64 63 63 63 62 62 61 59 55 52 48 49 59 58 58 57 57 54
MSLP
998.80 999.53 1000.20 1000.64 1001.10 1001.61 1002.22 1002.53 1002.92 1003.21 1004.19 1004.83 1005.40 1006.02 1006.59 1007.08 1007.47 1007.72 1008.04 1008.37 1008.68 1008.96
998.33 998.96 999.51 1000.01 1000.50 1001.13 1001.67 1002.33 1002.54 1003.30 1004.15 1004.74 1005.38 1006.00 1006.51 1007.02 1007.39 1007.55 1007.88 1008.15 1008.35 1008.58
997.92 998.53 998.92 999.39 1000.19 1000.85 1001.56 1001.91 1002.65 1003.41 1004.10 1004.71 1005.32 1005.88 1006.35 1006.83 1007.04 1007.43 1007.77 1007.93 1008.21 1008.36
997.75 998.21 998.61 999.07 999.75 1000.63 1001.30 1001.85 1002.66 1003.34 1004.00 1004.68 1005.16 1005.66 1006.29 1006.70 1006.93 1007.39 1007.65 1007.69 1008.01 1008.22
997.53 997.94 998.45 999.18 999.97 1000.49 1001.02 1001.79 1002.60 1003.19 1003.90 1004.27 1004.98 1005.56 1006.16 1006.50 1006.75 1007.14 1007.40 1007.61 1007.86 1008.06
997.61 997.97 998.84 999.65 1000.35 1000.86 1001.36 1001.99 1002.56 1003.16 1003.80 1004.27 1004.89 1005.49 1005.87 1006.21 1006.64 1006.97 1007.22 1007.44 1007.77 1008.03
997.73 998.50 999.38 1000.12 1000.48 1000.99 1001.35 1002.08 1002.65 1003.17 1003.61 1004.17 1004.74 1005.12 1005.59 1006.06 1006.51 1006.90 1007.31 1007.60 1007.86 1008.16
998.04 998.97 999.61 1000.13 1000.68 1000.98 1001.54 1002.10 1002.48 1003.14 1003.64 1004.18 1004.55 1004.93 1005.41 1005.85 1006.51 1007.11 1007.60 1007.83 1008.03 1008.21
998.38 999.06 999.77 1000.36 1000.89 1001.38 1001.87 1002.19 1002.70 1003.49 1003.99 1004.52 1004.96 1005.14 1005.24 1005.74 1006.48 1007.04 1007.54 1007.91 1008.15 1008.30
998.55 999.47 1000.06 1000.59 1001.13 1001.64 1002.08 1002.55 1003.40 1003.96 1004.30 1005.05 1005.56 1005.55 1005.71 1005.84 1006.34 1006.95 1007.40 1007.74 1008.01 1008.26
998.76 999.72 1000.22 1000.72 1001.31 1001.84 1002.34 1002.91 1003.70 1004.27 1004.81 1005.44 1006.08 1006.11 1006.15 1006.23 1006.46 1006.83 1007.30 1007.70 1007.99 1008.25
998.70 999.74 1000.30 1000.94 1001.43 1002.04 1002.71 1003.35 1003.86 1004.38 1005.00 1005.51 1006.32 1006.56 1006.50 1006.44 1006.68 1007.30 1007.67 1007.99 1008.15 1008.21
998.51 999.57 1000.31 1000.93 1001.64 1002.28 1002.91 1003.54 1003.97 1004.51 1004.95 1005.53 1006.29 1006.76 1006.65 1006.55 1006.98 1007.58 1007.85 1008.26 1008.44 1008.32
998.45 999.31 1000.19 1000.99 1001.75 1002.53 1003.21 1003.71 1004.16 1004.70 1005.26 1005.75 1006.16 1006.77 1006.78 1006.74 1007.11 1007.50 1007.87 1008.29 1008.54 1008.76
Wind_Speed
9 6 6 7 8 8 7 6 7 7 6 7 6 7 6 4 4 5 4 5 4 3
9 8 8 9 9 9 7 6 8 8 7 6 7 7 7 4 5 5 4 4 5 3
8 7 10 11 11 10 8 8 9 8 7 7 8 8 7 4 5 6 4 4 5 3
7 7 10 8 9 10 10 11 10 9 8 8 8 7 6 5 6 7 6 4 5 5
8 10 10 10 9 10 12 11 9 9 7 8 7 7 7 6 6 6 6 6 5 4
11 11 12 10 9 11 9 8 8 8 8 8 8 7 6 6 6 6 6 5 4 2
11 11 11 8 7 8 8 8 8 7 7 7 8 8 7 6 6 6 6 6 6 4
10 9 10 8 7 8 7 7 7 7 6 7 7 5 7 6 8 7 6 5 5 4
11 10 8 7 7 7 7 7 7 7 7 8 5 6 12 9 8 7 7 6 4 3
11 10 8 7 7 7 7 6 10 8 9 7 6 6 8 9 6 7 6 6 5 3
11 9 7 8 7 7 6 7 8 8 8 7 4 5 6 5 6 6 5 5 5 4
13 10 8 7 7 6 7 5 5 7 8 8 5 6 6 3 6 6 6 4 3 1
14 12 8 8 8 4 6 5 5 6 6 8 7 6 6 5 6 6 4 4 3 6
13 12 9 8 7 6 6 6 6 7 6 6 7 4 4 4 5 5 4 3 3 3
Wind_Direction
174 170 188 171 162 159 167 157 162 139 151 158 143 124 130 135 160 164 171 176 169 172
173 171 178 163 161 159 156 162 147 149 149 157 133 135 143 155 175 171 167 174 166 161
167 172 166 154 161 162 155 148 142 144 146 145 142 146 153 174 181 158 174 176 167 187
172 165 160 138 145 152 150 140 146 146 145 142 137 146 153 169 169 153 166 168 181 203
139 135 121 113 124 129 133 139 140 138 139 133 146 156 151 153 168 159 169 177 182 212
134 122 112 117 124 127 128 136 127 133 148 153 152 146 162 164 169 159 170 176 154 115
129 115 120 132 122 123 126 130 132 150 153 144 158 164 167 163 142 134 116 112 116 108
119 122 126 125 128 123 124 129 129 142 155 160 162 160 162 145 142 130 123 116 123 129
127 118 120 121 125 126 135 131 131 103 122 110 98 136 150 138 136 139 138 152 137 143
124 128 134 131 127 132 129 127 122 122 109 102 105 95 105 130 141 144 156 159 155 164
132 129 124 130 139 115 121 119 126 122 117 117 116 101 102 94 145 148 142 140 152 175
134 134 133 135 121 120 111 110 114 125 125 122 124 119 106 91 104 96 98 103 90 146
144 142 143 134 121 118 124 130 125 121 124 131 126 121 87 98 114 118 127 110 101 31
144 144 140 121 125 125 130 121 120 121 129 126 130 128 93 108 124 143 139 147 140 95